Tracking 35274 objects as of 11-Sep-2026
HD Live streaming from Space Station
objects crossing your sky now

STARLINK-3817

Track STARLINK-3817 now!
10-day predictions
STARLINK-3817 is classified as:


NORAD ID: 52367
Int'l Code: 2022-045AN
Launch date: April 29, 2022
Source: United States (US)
Launch site: AIR FORCE EASTERN TEST RANGE (AFETR)
Your satellite tracking list
Your tracking list is empty




NASA's NSSDC Master Catalog

Two Line Element Set (TLE):
1 52367U 22045AN  26253.76515813 -.00001853  00000-0 -44969-4 0  9995
2 52367  53.1604  71.1172 0001491 119.1418 240.9734 15.33574024243959
Source of the keplerian elements: AFSPC